FW8402 Weather Reports


time (UTC)temp
F
wind
direction
speed
knots
gust
knots
rain 1hr
in
rain 24hr
in
rain mn
in
humidity
%
barometer
mb
20260510104443 67 71 7.0 8.7 0.00 0.00 0.00 99 1016.1
20260510103939 67 80 6.1 7.8 0.00 0.00 0.00 99 1016.2
20260510103437 67 75 6.1 9.6 0.00 0.00 0.00 99 1016.2
20260510102932 67 77 6.1 8.7 0.00 0.00 0.00 99 1016.0
20260510102428 67 74 6.1 8.7 0.00 0.00 0.00 99 1016.0
20260510101925 67 77 7.0 7.8 0.00 0.00 0.00 99 1016.0
20260510101423 67 78 7.0 9.6 0.00 0.00 0.00 99 1016.0
20260510100921 67 71 8.7 9.6 0.00 0.00 0.00 99 1016.0
20260510100417 67 66 8.7 9.6 0.00 0.00 0.00 99 1015.7
20260510095913 67 89 6.1 7.8 0.00 0.00 0.00 99 1015.8
20260510095409 67 84 5.2 7.8 0.00 0.00 0.00 99 1015.7
20260510094908 67 78 7.8 7.8 0.00 0.00 0.00 99 1015.5
20260510094403 67 86 6.1 8.7 0.00 0.00 0.00 99 1015.5
20260510093900 67 87 6.1 9.6 0.00 0.00 0.00 99 1015.4
20260510093355 67 94 5.2 8.7 0.00 0.00 0.00 99 1015.5
20260510092852 67 80 7.0 9.6 0.00 0.00 0.00 99 1015.3
20260510092349 67 95 5.2 8.7 0.00 0.00 0.00 99 1015.3
20260510091844 67 97 6.1 8.7 0.00 0.00 0.00 99 1015.5
20260510091341 67 86 5.2 7.8 0.00 0.00 0.00 99 1015.4
20260510090837 67 84 7.0 7.8 0.00 0.00 0.00 99 1015.5
20260510090329 67 92 7.8 8.7 0.00 0.00 0.00 99 1015.4
20260510085824 67 83 6.1 9.6 0.00 0.00 0.00 99 1015.7
20260510085319 67 82 7.0 9.6 0.00 0.00 0.00 99 1015.6
20260510084815 66 82 7.8 7.8 0.02 0.00 0.00 99 1015.6
20260510084312 66 86 7.0 8.7 0.02 0.00 0.00 99 1015.6
20260510083809 66 83 8.7 9.6 0.00 0.00 0.00 99 1015.5
20260510083306 66 71 8.7 9.6 0.00 0.00 0.00 99 1015.6
20260510082801 66 78 7.0 7.8 0.00 0.00 0.00 99 1015.5
20260510082258 66 81 6.1 7.8 0.00 0.00 0.00 99 1015.6
20260510081756 66 74 7.0 7.8 0.00 0.00 0.00 99 1015.6
20260510081253 66 74 6.1 8.7 0.00 0.00 0.00 99 1015.6
20260510080749 66 79 6.1 8.7 0.00 0.00 0.00 99 1015.5
20260510080244 66 67 7.8 8.7 0.00 0.00 0.00 99 1015.5
20260510075741 66 77 6.1 8.7 0.00 0.00 0.00 99 1015.7
20260510075239 66 77 7.0 7.0 0.00 0.00 0.00 99 1015.4
20260510074736 66 75 7.0 8.7 0.00 0.00 0.00 99 1015.2
20260510074232 66 85 7.0 8.7 0.00 0.00 0.00 99 1015.3
20260510073728 66 76 7.0 8.7 0.00 0.00 0.00 99 1015.4
20260510073224 66 69 7.0 7.8 0.00 0.00 0.00 99 1015.4
20260510072720 66 77 7.0 7.0 0.00 0.00 0.00 99 1015.2
20260510072217 66 70 6.1 7.0 0.00 0.00 0.00 99 1015.2
20260510071714 66 78 5.2 6.1 0.00 0.00 0.00 99 1015.2
20260510071210 66 72 6.1 7.0 0.00 0.00 0.00 99 1015.1
20260510070709 66 76 6.1 7.0 0.00 0.00 0.00 99 1015.1
20260510070205 66 78 5.2 6.1 0.00 0.00 0.00 99 1014.9
20260510065700 67 77 6.1 7.0 0.00 0.00 0.00 99 1014.9
20260510065157 67 79 6.1 7.8 0.00 0.00 0.00 99 1015.1
20260510064653 67 82 7.0 7.8 0.00 0.00 0.00 99 1015.2
20260510064151 67 75 7.0 7.8 0.00 0.00 0.00 99 1015.1
20260510063648 67 80 7.0 7.8 0.00 0.00 0.00 99 1015.1
20260510063144 67 69 7.0 7.0 0.00 0.00 0.00 99 1015.1
20260510062640 67 72 6.1 6.1 0.00 0.00 0.00 99 1015.2
20260510062136 67 75 5.2 6.1 0.00 0.00 0.00 99 1015.2
20260510061632 67 75 5.2 6.1 0.00 0.00 0.00 99 1015.0
20260510061130 67 81 6.1 6.1 0.00 0.00 0.00 99 1015.0
20260510060625 67 86 5.2 6.1 0.00 0.00 0.00 99 1015.2
20260510060122 67 89 5.2 6.1 0.00 0.00 0.00 99 1015.2
20260510055618 67 87 6.1 7.8 0.00 0.00 0.00 99 1015.1
20260510055117 67 88 5.2 6.1 0.00 0.00 0.00 99 1015.3
20260510054611 67 88 5.2 6.1 0.00 0.00 0.00 99 1015.3
20260510054106 67 89 6.1 6.1 0.00 0.00 0.00 99 1015.3
20260510053601 67 91 5.2 6.1 0.00 0.00 0.00 99 1015.2
20260510053058 67 78 6.1 7.0 0.00 0.00 0.00 99 1015.5
20260510052554 67 71 6.1 7.0 0.00 0.00 0.00 99 1015.4
20260510052050 67 73 6.1 6.1 0.00 0.00 0.00 99 1015.2
20260510051546 67 81 6.1 6.1 0.00 0.00 0.00 99 1015.2
20260510051042 67 80 5.2 6.1 0.00 0.00 0.00 99 1015.3
20260510050540 67 74 6.1 7.0 0.00 0.00 0.00 99 1015.5
20260510050036 68 79 5.2 6.1 0.00 1.56 1.56 99 1015.3
20260510045534 68 80 6.1 6.1 0.00 1.56 1.56 99 1015.2
20260510045029 68 80 6.1 7.0 0.00 1.56 1.56 99 1015.3
20260510044526 67 83 6.1 7.0 0.00 1.56 1.56 99 1015.2
20260510044024 68 79 5.2 7.0 0.00 1.56 1.56 99 1015.3
20260510043519 68 87 6.1 7.0 0.00 1.56 1.56 99 1015.4
20260510043014 68 86 5.2 6.1 0.00 1.56 1.56 99 1015.5
20260510042509 68 87 4.3 5.2 0.00 1.56 1.56 99 1015.5
20260510042004 68 87 4.3 7.8 0.00 1.56 1.56 99 1015.2
20260510041502 68 88 5.2 7.8 0.00 1.56 1.56 99 1015.2
20260510040959 68 111 7.0 9.6 0.00 1.56 1.56 99 1015.0
20260510040455 68 108 5.2 7.0 0.00 1.56 1.56 99 1015.0
20260510035952 68 98 5.2 7.0 0.00 1.56 1.56 99 1015.2
20260510035449 68 106 5.2 6.1 0.00 1.56 1.56 99 1015.2
20260510034948 68 91 5.2 7.8 0.00 1.56 1.56 99 1015.4
20260510034447 68 106 4.3 8.7 0.00 1.56 1.56 99 1015.4
20260510033943 68 140 5.2 7.0 0.00 1.56 1.56 99 1015.1
20260510033439 68 109 5.2 9.6 0.00 1.56 1.56 99 1015.0
20260510032937 68 109 6.1 9.6 0.00 1.56 1.56 99 1015.1
20260510032433 68 105 7.8 13.0 0.00 1.56 1.56 99 1014.9
20260510031928 68 112 7.8 12.2 0.00 1.56 1.56 99 1015.1
20260510031424 68 97 5.2 11.3 0.00 1.56 1.56 99 1015.3
20260510030920 68 113 5.2 13.0 0.00 1.56 1.56 99 1015.3
20260510030416 68 111 6.1 11.3 0.00 1.56 1.56 99 1015.7
20260510025914 68 103 5.2 8.7 0.00 1.56 1.56 99 1015.7
20260510025411 68 92 5.2 7.8 0.00 1.56 1.56 99 1015.9
20260510024908 68 102 7.0 9.6 0.00 1.56 1.56 99 1016.0
20260510024404 68 105 5.2 8.7 0.00 1.56 1.56 99 1015.8
20260510023900 68 103 5.2 7.8 0.00 1.56 1.56 99 1015.4
20260510023357 68 97 5.2 7.0 0.00 1.56 1.56 99 1015.6
20260510022854 68 105 7.8 8.7 0.00 1.56 1.56 99 1015.6
20260510022353 68 91 5.2 7.0 0.00 1.56 1.56 99 1015.5
20260510021852 68 87 5.2 7.8 0.00 1.56 1.56 99 1015.3
20260510021350 68 115 5.2 8.7 0.00 1.56 1.56 99 1015.4
20260510020846 68 104 6.1 8.7 0.00 1.56 1.56 99 1015.5
20260510020347 68 91 6.1 6.1 0.00 1.56 1.56 99 1015.9
20260510015842 68 83 5.2 6.1 0.00 1.56 1.56 99 1015.8
20260510015339 68 96 7.0 7.8 0.00 1.56 1.56 99 1015.5
20260510014834 68 103 4.3 8.7 0.00 1.56 1.56 99 1015.1
20260510014331 68 105 5.2 10.4 0.00 1.56 1.56 99 1015.1
20260510013827 68 99 5.2 8.7 0.00 1.56 1.56 99 1015.5
20260510013323 68 101 7.0 7.0 0.00 1.56 1.56 99 1015.5
20260510012818 68 101 7.0 10.4 0.00 1.56 1.56 99 1015.4
20260510012318 68 87 5.2 8.7 0.00 1.56 1.56 99 1015.4
20260510011813 68 84 7.0 8.7 0.00 1.56 1.56 99 1015.4
20260510011309 68 87 7.0 7.8 0.00 1.56 1.56 99 1015.5
20260510010806 68 78 6.1 7.8 0.00 1.56 1.56 99 1015.4
20260510010303 68 76 7.0 7.8 0.00 1.56 1.56 99 1015.3
20260510005759 68 64 7.8 7.8 0.00 1.56 1.56 99 1015.3
20260510005255 68 92 6.1 7.8 0.00 1.56 1.56 99 1015.4
20260510004754 68 87 6.1 7.8 0.00 1.56 1.56 99 1015.4
20260510004251 68 86 6.1 7.0 0.00 1.56 1.56 99 1015.2
20260510003748 68 88 5.2 6.1 0.00 1.56 1.56 99 1015.3
20260510003245 68 76 6.1 7.0 0.00 1.56 1.56 99 1015.3
20260510002743 68 79 5.2 5.2 0.00 1.56 1.56 99 1015.5
20260510002241 68 84 6.1 7.8 0.00 1.56 1.56 99 1015.1
20260510001737 68 93 7.0 7.0 0.00 1.56 1.56 99 1015.0
20260510001236 68 91 6.1 6.1 0.00 1.56 1.56 99 1014.7
20260510000732 68 89 7.0 8.7 0.00 1.56 1.56 99 1014.5
20260510000229 68 89 6.1 7.8 0.00 1.56 1.56 99 1014.6
20260509235726 68 93 7.0 7.0 0.00 1.56 1.56 99 1014.5
20260509235222 68 86 5.2 6.1 0.00 1.56 1.56 99 1014.4
20260509234718 68 101 6.1 7.8 0.00 1.56 1.56 99 1014.3
20260509234215 68 103 7.0 7.8 0.00 1.56 1.56 99 1014.1
20260509233713 68 97 5.2 7.8 0.00 1.56 1.56 99 1014.1
20260509233210 68 95 5.2 8.7 0.00 1.56 1.56 99 1014.1
20260509232707 68 103 7.8 9.6 0.00 1.56 1.56 99 1013.9
20260509232204 68 100 6.1 7.0 0.00 1.56 1.56 99 1014.1
20260509231700 68 94 7.0 9.6 0.00 1.56 1.56 99 1013.9
20260509231158 68 97 9.6 9.6 0.00 1.56 1.56 99 1013.8
20260509230655 68 85 7.8 9.6 0.00 1.56 1.56 99 1013.8
20260509230151 68 85 6.1 8.7 0.00 1.56 1.56 99 1014.1
20260509225647 68 96 5.2 10.4 0.00 1.56 1.56 99 1013.9
20260509225143 68 95 5.2 7.0 0.00 1.56 1.56 99 1013.6
20260509224638 68 106 9.6 9.6 0.00 1.56 1.56 99 1013.1
20260509224136 67 83 6.1 11.3 0.00 1.56 1.56 99 1012.7
20260509223632 67 82 11.3 11.3 0.00 1.56 1.56 99 1013.2
20260509223130 67 83 5.2 11.3 0.00 1.56 1.56 99 1013.1
20260509222627 67 67 7.0 9.6 0.02 1.56 1.56 99 1013.1
20260509222122 67 82 7.8 13.0 0.02 1.56 1.56 99 1013.0
20260509221618 67 92 9.6 11.3 0.02 1.56 1.56 99 1013.2
20260509221114 67 93 7.8 11.3 0.02 1.55 1.55 99 1013.4
20260509220610 67 93 8.7 12.2 0.09 1.55 1.55 99 1013.4
20260509220107 67 100 6.1 13.0 0.12 1.55 1.55 99 1013.7
20260509215602 67 86 6.1 11.3 0.07 1.53 1.53 99 1014.0
20260509215100 68 94 7.8 10.4 0.09 1.53 1.53 99 1014.0
20260509214557 67 96 9.6 13.0 0.07 1.52 1.52 99 1014.1
20260509214053 67 96 9.6 10.4 0.05 1.52 1.52 99 1014.2
20260509213549 67 85 7.8 8.7 0.02 1.51 1.51 99 1014.2
20260509213046 68 104 6.1 10.4 0.00 1.51 1.51 99 1014.4
20260509212543 67 100 6.1 7.8 0.00 1.51 1.51 99 1014.3
20260509212040 67 101 5.2 11.3 0.00 1.51 1.51 99 1014.1
20260509211536 67 88 6.1 9.6 0.00 1.51 1.51 99 1014.1
20260509211033 67 85 8.7 12.2 0.00 1.51 1.51 99 1014.1
20260509210530 67 92 7.0 8.7 0.00 1.51 1.51 99 1014.3
20260509210026 67 85 8.7 10.4 0.00 1.51 1.51 99 1013.9
20260509205520 67 87 7.8 9.6 0.00 1.51 1.51 99 1014.4
20260509205016 67 83 7.8 12.2 0.00 1.51 1.51 99 1014.4
20260509204512 67 74 8.7 11.3 0.00 1.51 1.51 99 1014.5
20260509204009 67 75 9.6 13.9 0.00 1.51 1.51 99 1013.9
20260509203505 67 80 8.7 15.6 0.00 1.51 1.51 99 1014.2
20260509203004 67 92 7.8 11.3 0.00 1.51 1.51 99 1015.0
20260509202458 67 92 6.1 11.3 0.00 1.51 1.51 99 1015.0
20260509201959 67 84 8.7 11.3 0.00 1.51 1.51 99 1015.0
20260509201454 67 99 8.7 11.3 0.24 1.51 1.51 99 1014.5
20260509200952 67 109 7.8 13.9 0.40 1.51 1.51 99 1014.0
20260509200447 67 82 11.3 11.3 0.26 1.47 1.47 99 1014.8
20260509195943 67 96 5.2 5.2 0.12 1.44 1.44 99 1015.3
20260509195439 67 102 4.3 9.6 0.21 1.43 1.43 99 1015.2
20260509194938 67 65 13.0 17.4 0.54 1.42 1.42 99 1014.5
20260509194434 68 79 9.6 11.3 0.90 1.37 1.37 99 1015.0
20260509193931 68 89 5.2 5.2 0.42 1.28 1.28 99 1014.9
20260509193431 68 93 6.1 7.8 0.14 1.22 1.22 99 1014.6
20260509192927 68 96 10.4 10.4 0.17 1.20 1.20 99 1014.4
20260509192424 68 102 7.0 11.3 0.09 1.19 1.19 99 1014.1
20260509191919 68 96 6.1 9.6 0.00 1.17 1.17 99 1014.2
20260509191414 68 120 7.0 11.3 0.02 1.17 1.17 99 1014.2
20260509190910 68 92 5.2 7.8 0.12 1.17 1.17 99 1014.4
20260509190408 68 92 7.8 11.3 0.38 1.17 1.17 99 1014.6
20260509185906 68 79 6.1 12.2 0.40 1.15 1.15 99 1014.5
20260509185402 67 83 7.8 11.3 0.09 1.10 1.10 99 1014.2
20260509184859 67 96 6.1 11.3 0.00 1.09 1.09 99 1014.5
20260509184355 67 103 7.8 12.2 0.00 1.09 1.09 99 1014.6
20260509183853 67 95 8.7 13.0 0.00 1.09 1.09 99 1014.6
20260509183347 67 83 7.8 13.0 0.00 1.09 1.09 99 1014.5
20260509182843 67 98 7.8 11.3 0.09 1.09 1.09 99 1014.9
20260509182341 67 77 7.0 12.2 0.64 1.09 1.09 99 1014.7
20260509181838 67 80 8.7 13.0 1.11 1.07 1.07 99 1015.2
20260509181335 67 91 5.2 10.4 0.61 0.98 0.98 99 1015.2
20260509180833 67 116 6.1 10.4 0.21 0.88 0.88 99 1015.3
20260509180328 67 104 5.2 8.7 0.87 0.88 0.88 99 1015.2
20260509175825 67 98 9.6 13.0 0.83 0.83 0.83 99 1014.9
20260509175322 67 88 7.8 7.8 0.31 0.72 0.72 99 1015.6
20260509174818 67 88 6.1 7.8 0.61 0.69 0.69 99 1015.5
20260509174313 67 86 7.8 12.2 0.50 0.66 0.66 99 1015.3
20260509173809 67 115 7.8 9.6 0.07 0.58 0.58 99 1015.6
20260509173305 67 96 5.2 12.2 0.24 0.58 0.58 99 1015.2
20260509172801 67 82 7.8 9.6 0.17 0.56 0.56 99 1014.5
20260509172253 67 94 6.1 10.4 0.09 0.54 0.54 99 1014.7
20260509171749 67 96 7.8 8.7 0.47 0.54 0.54 99 1014.5
20260509171245 67 96 7.0 8.7 1.21 0.52 0.52 99 1014.9
20260509170742 67 95 11.3 18.2 1.98 0.46 0.46 99 1014.7
20260509170238 67 103 7.8 13.0 1.47 0.30 0.30 98 1014.4
20260509165736 67 95 8.7 10.4 0.76 0.16 0.16 98 1014.8
20260509165232 67 88 7.0 7.8 0.14 0.06 0.06 98 1015.1
20260509164728 67 71 5.2 7.8 0.02 0.04 0.04 98 1014.9
20260509164224 68 79 7.0 8.7 0.00 0.03 0.03 98 1014.9
20260509163721 68 89 7.0 7.8 0.00 0.03 0.03 98 1014.5
20260509163217 68 92 8.7 11.3 0.00 0.03 0.03 98 1014.7
20260509162715 68 84 7.8 9.6 0.00 0.03 0.03 98 1014.8
20260509162210 68 96 8.7 13.0 0.00 0.03 0.03 98 1014.8
20260509161706 68 87 7.8 10.4 0.00 0.03 0.03 98 1014.9
20260509161203 68 77 11.3 12.2 0.00 0.03 0.03 98 1014.9
20260509160658 68 75 7.8 12.2 0.00 0.03 0.03 98 1015.0
20260509160154 68 86 7.0 12.2 0.00 0.03 0.03 98 1014.8
20260509155650 68 76 7.8 10.4 0.00 0.03 0.03 98 1014.8
20260509155146 68 87 8.7 10.4 0.00 0.03 0.03 98 1015.0
20260509154642 67 79 7.8 13.0 0.00 0.03 0.03 98 1015.2
20260509154140 67 96 7.0 12.2 0.00 0.03 0.03 98 1015.3
20260509153636 67 92 9.6 12.2 0.00 0.03 0.03 99 1015.4
20260509153133 67 103 10.4 13.9 0.00 0.03 0.03 99 1015.0
20260509152628 67 75 7.8 9.6 0.00 0.03 0.03 99 1015.0
20260509152126 67 116 7.8 12.2 0.00 0.03 0.03 99 1015.0
20260509151622 67 91 7.0 10.4 0.00 0.03 0.03 99 1014.7
20260509151120 66 74 7.8 10.4 0.00 0.03 0.03 99 1014.7
20260509150618 66 86 9.6 13.0 0.00 0.03 0.03 99 1014.8
20260509150116 66 84 5.2 13.0 0.00 0.03 0.03 99 1015.0
20260509145611 66 79 7.8 10.4 0.02 0.03 0.03 99 1015.1
20260509145107 66 63 11.3 11.3 0.02 0.03 0.03 99 1015.0
20260509144604 66 100 10.4 13.0 0.00 0.03 0.03 99 1015.3
20260509144101 66 85 8.7 11.3 0.00 0.03 0.03 99 1014.9
20260509143558 66 77 7.0 10.4 0.00 0.03 0.03 99 1014.6
20260509143056 67 96 12.2 13.9 0.02 0.03 0.03 99 1015.2
20260509142551 67 71 8.7 10.4 0.02 0.03 0.03 99 1014.9
20260509142047 66 71 9.6 13.0 0.00 0.02 0.02 99 1014.7
20260509141543 66 61 13.0 13.9 0.02 0.02 0.02 99 1014.5
20260509141040 66 72 7.8 12.2 0.02 0.02 0.02 99 1014.4
20260509140537 67 75 13.0 15.6 0.02 0.02 0.02 99 1014.3
20260509140035 67 44 10.4 13.0 0.05 0.02 0.02 99 1014.3
20260509135531 67 61 9.6 13.9 0.09 0.02 0.02 99 1014.3
20260509135029 67 61 8.7 13.0 0.02 0.00 0.00 99 1014.1
20260509134526 67 68 8.7 11.3 0.00 0.00 0.00 99 1014.3
20260509134024 67 75 9.6 13.9 0.00 0.00 0.00 99 1014.2
20260509133520 67 75 7.8 11.3 0.00 0.00 0.00 99 1014.3
20260509133018 68 78 7.8 11.3 0.00 0.00 0.00 99 1014.5
20260509132516 68 71 9.6 15.6 0.00 0.00 0.00 99 1014.5
20260509132013 68 65 13.9 13.9 0.00 0.00 0.00 99 1014.4
20260509131509 68 61 11.3 13.0 0.00 0.00 0.00 99 1014.4
20260509131006 68 56 9.6 14.8 0.00 0.00 0.00 99 1014.2
20260509130502 68 49 13.0 16.5 0.00 0.00 0.00 99 1014.0
20260509125959 69 53 11.3 17.4 0.00 0.00 0.00 99 1014.2
20260509125455 71 44 9.6 13.0 0.00 0.00 0.00 99 1014.2
20260509124951 72 58 7.8 13.0 0.00 0.00 0.00 99 1014.0
20260509124449 72 43 11.3 12.2 0.00 0.00 0.00 99 1013.9
20260509123945 73 54 7.8 11.3 0.00 0.00 0.00 99 1013.8
20260509123443 73 83 5.2 7.8 0.00 0.00 0.00 99 1013.8
20260509122939 73 86 5.2 6.1 0.00 0.00 0.00 99 1013.7
20260509122436 73 78 5.2 7.0 0.00 0.00 0.00 99 1013.5
20260509121932 73 82 5.2 7.0 0.00 0.00 0.00 99 1013.4
20260509121430 73 84 5.2 6.1 0.00 0.00 0.00 99 1013.3
20260509120928 73 83 5.2 6.1 0.00 0.00 0.00 99 1013.3
20260509120425 73 84 5.2 5.2 0.00 0.00 0.00 99 1013.3
20260509115923 73 89 4.3 6.1 0.00 0.00 0.00 99 1013.4
20260509115420 73 78 5.2 6.1 0.00 0.00 0.00 99 1013.6
20260509114918 73 79 5.2 6.1 0.00 0.00 0.00 99 1013.5
20260509114416 73 86 5.2 6.1 0.00 0.00 0.00 99 1013.4
20260509113916 73 89 5.2 5.2 0.00 0.00 0.00 99 1013.6
20260509113412 73 88 5.2 6.1 0.00 0.00 0.00 99 1013.6
20260509112904 73 82 5.2 6.1 0.00 0.00 0.00 99 1013.4
20260509112401 73 79 5.2 6.1 0.00 0.00 0.00 99 1013.5
20260509111858 73 81 5.2 6.1 0.00 0.00 0.00 99 1013.3
20260509111354 73 89 5.2 6.1 0.00 0.00 0.00 99 1013.2
20260509110853 73 84 5.2 5.2 0.00 0.00 0.00 99 1013.2
20260509110348 73 91 5.2 6.1 0.00 0.00 0.00 99 1012.7
20260509105847 73 96 5.2 7.0 0.00 0.00 0.00 99 1012.6
20260509105345 73 102 5.2 6.1 0.00 0.00 0.00 99 1012.5
20260509104841 73 96 4.3 5.2 0.00 0.00 0.00 99 1012.7